EW9447 Weather Reports


time (UTC)temp
C
wind
direction
speed
KPH
gust
KPH
rain 1hr
cm
rain 24hr
cm
rain mn
cm
humidity
%
barometer
mb
20260505124543 4 301 1.6 9.7 0.00 0.00 0.00 69 1010.9
20260505123053 3 294 1.6 8.0 0.00 0.00 0.00 72 1010.8
20260505121540 2 0 3.2 8.0 0.00 0.00 0.00 75 1010.7
20260505120051 1 0 1.6 4.8 0.00 0.00 0.00 78 1010.4
20260505114546 0 0 0.0 0.0 0.00 0.00 0.00 79 1010.3
20260505113035 0 0 0.0 0.0 0.00 0.00 0.00 78 1009.9
20260505111539 0 0 0.0 1.6 0.00 0.00 0.00 77 1009.6
20260505101540 1 0 0.0 6.4 0.00 0.00 0.00 75 1008.8
20260505100039 1 0 1.6 4.8 0.00 0.00 0.00 75 1008.7
20260505094535 0 295 0.0 4.8 0.00 0.00 0.00 75 1008.8
20260505093035 0 0 0.0 3.2 0.00 0.00 0.00 74 1008.8
20260505091538 2 0 0.0 3.2 0.00 0.00 0.00 69 1008.7
20260505090035 2 0 0.0 4.8 0.00 0.00 0.00 69 1008.5
20260505084552 2 0 0.0 0.0 0.00 0.00 0.00 69 1008.3
20260505083058 3 0 0.0 0.0 0.00 0.00 0.00 68 1008.3
20260505081554 3 0 0.0 1.6 0.00 0.00 0.00 67 1008.2
20260505080045 3 0 0.0 0.0 0.00 0.00 0.00 69 1008.1
20260505074544 3 0 0.0 0.0 0.00 0.00 0.00 68 1007.9
20260505073048 3 0 0.0 0.0 0.00 0.00 0.00 67 1008.0
20260505071546 3 0 0.0 0.0 0.00 0.00 0.00 66 1008.0
20260505070049 4 0 0.0 0.0 0.00 0.00 0.00 64 1007.8
20260505064537 4 0 0.0 1.6 0.00 0.00 0.00 63 1007.9
20260505063050 4 0 0.0 0.0 0.00 0.00 0.00 63 1008.1
20260505061541 4 0 0.0 0.0 0.00 0.00 0.00 62 1008.1
20260505060055 5 0 0.0 0.0 0.00 0.00 0.00 62 1008.0
20260505054539 5 0 0.0 0.0 0.00 0.00 0.00 61 1007.9
20260505053038 5 0 0.0 1.6 0.00 0.00 0.00 62 1007.8
20260505051540 4 0 0.0 0.0 0.00 0.00 0.00 62 1007.7
20260505041552 6 0 0.0 0.0 0.00 0.00 0.00 57 1007.8
20260505040047 6 0 0.0 0.0 0.00 0.00 0.00 57 1007.8
20260505034537 6 0 0.0 0.0 0.00 0.00 0.00 56 1007.8
20260505033037 6 0 0.0 0.0 0.00 0.00 0.00 56 1008.0
20260505031543 7 0 0.0 1.6 0.00 0.00 0.00 55 1007.8
20260505030059 7 0 0.0 1.6 0.00 0.00 0.00 53 1007.7
20260505024543 8 0 0.0 1.6 0.00 0.00 0.00 52 1007.7
20260505023039 8 0 0.0 4.8 0.00 0.00 0.00 52 1007.4
20260505021536 9 0 0.0 6.4 0.00 0.00 0.00 51 1007.1
20260505020039 9 334 0.0 4.8 0.00 0.00 0.00 49 1006.8
20260505014556 10 351 1.6 6.4 0.00 0.00 0.00 49 1006.5
20260505013048 10 333 1.6 12.9 0.00 0.00 0.00 49 1006.0
20260505011542 10 0 0.0 8.0 0.00 0.00 0.00 48 1005.7
20260505010043 11 0 1.6 9.7 0.00 0.00 0.00 47 1005.6
20260505004546 11 306 1.6 20.9 0.00 0.00 0.00 47 1005.1
20260505003052 11 317 1.6 14.5 0.00 0.00 0.00 47 1004.9
20260505001542 12 0 1.6 12.9 0.00 0.00 0.00 48 1004.8
20260505000038 12 25 1.6 14.5 0.00 0.00 0.00 46 1004.6
20260504234534 12 288 3.2 16.1 0.00 0.00 0.00 46 1004.5
20260504233037 13 307 4.8 12.9 0.00 0.00 0.00 48 1004.3
20260504231533 14 297 1.6 14.5 0.00 0.00 0.00 46 1003.9
20260504230040 15 290 1.6 9.7 0.00 0.00 0.00 44 1003.9
20260504224538 16 320 1.6 12.9 0.00 0.00 0.00 42 1003.6
20260504223056 16 262 3.2 19.3 0.00 0.00 0.00 43 1003.4
20260504221535 15 302 6.4 32.2 0.00 0.00 0.00 41 1003.1
20260504220042 16 308 3.2 12.9 0.00 0.00 0.00 41 1003.2
20260504214539 17 321 12.9 37.0 0.00 0.00 0.00 38 1003.0
20260504213040 17 360 3.2 16.1 0.00 0.00 0.00 41 1002.8
20260504211604 18 307 8.0 24.1 0.00 0.00 0.00 38 1002.7
20260504210043 17 304 3.2 22.5 0.00 0.00 0.00 39 1002.7
20260504204543 17 328 3.2 11.3 0.00 0.00 0.00 38 1002.6
20260504203043 17 21 3.2 14.5 0.00 0.00 0.00 38 1002.6
20260504201539 17 280 6.4 30.6 0.00 0.00 0.00 37 1002.5
20260504200039 17 359 1.6 16.1 0.00 0.00 0.00 36 1002.2
20260504194549 18 331 4.8 22.5 0.00 0.00 0.00 34 1002.3
20260504193042 18 283 12.9 27.4 0.00 0.00 0.00 32 1002.2
20260504191553 18 3 3.2 24.1 0.00 0.00 0.00 38 1001.9
20260504190045 17 313 8.0 19.3 0.00 0.00 0.00 43 1001.9
20260504184546 18 306 9.7 22.5 0.00 0.00 0.00 34 1001.7
20260504183035 19 9 4.8 14.5 0.00 0.00 0.00 39 1001.6
20260504181544 20 326 3.2 12.9 0.00 0.00 0.00 41 1001.3
20260504180042 20 42 4.8 22.5 0.00 0.00 0.00 39 1001.1
20260504174537 19 303 9.7 24.1 0.00 0.00 0.00 37 1001.0
20260504173035 19 320 8.0 24.1 0.00 0.00 0.00 39 1000.8
20260504171543 20 268 3.2 12.9 0.00 0.00 0.00 39 1000.8